Preview of NWS' New Version of Forecast
This preview is not operational and should not be used for support decisions.

Regional Weather Roundup (RWR)

Issued by National Weather Service (NWS)

                            
000
ASUS45 KCYS 192210
RWRWY 

WYOMING REGIONAL WEATHER ROUNDUP
NATIONAL WEATHER SERVICE CHEYENNE WY
300 PM MST TUE FEB 19 2019

NOTE:  "FAIR" INDICATES FEW OR NO CLOUDS BELOW 12,000 FEET
WITH NO SIGNIFICANT WEATHER AND/OR OBSTRUCTIONS TO VISIBILITY.

WYZ001-192300-
...YELLOWSTONE NATIONAL PARK...
  
CITY           SKY/WX    TMP DP  RH WIND       PRES   REMARKS
LK YELLOWSTONE   N/A      7  -2  66 VRB5      29.68F WCI  -2          
W YELLOWSTONE  NOT AVBL                                               

$$
WYZ002>013-054>058-071-098>099-192300-
...NORTHERN WYOMING...
  
CITY           SKY/WX    TMP DP  RH WIND       PRES   REMARKS
JACKSON        FLURRIES  13   0  56 SW14G21   29.76S WCI  -2          
CODY           SUNNY     25   7  46 E8        29.72F WCI  16          
GREYBULL       SUNNY     20   7  57 SE6       29.81F WCI  12          
WORLAND        SUNNY     21   7  54 NE3       29.79F                  
SHERIDAN       SUNNY     21   6  52 CALM      29.80F                  
BUFFALO        SUNNY     22   5  48 N7        29.72F WCI  13          
GILLETTE       SUNNY     17   8  67 S9        29.77F WCI   6          
HULETT         PTSUNNY   21   9  58 MISG      29.80F                  
NEWCASTLE        N/A     18   9  68 SE8       29.84F WCI   7          

$$
WYZ014>020-022>026-101>103-192300-
...CENTRAL WYOMING...
  
CITY           SKY/WX    TMP DP  RH WIND       PRES   REMARKS
BIG PINEY      SUNNY      5  -3  69 CALM      29.73F                  
PINEDALE       SUNNY      9  -4  56 CALM      29.73F                  
DUBOIS         FAIR      18  -6  35 W20G25    29.62F WCI   1          
LANDER         SUNNY     20   3  48 CALM      29.69F                  
RIVERTON       SUNNY     21   6  52 SE8       29.70F WCI  11          
CASPER         SUNNY     19   8  62 SW18      29.71F WCI   4          
DOUGLAS        CLOUDY    21   9  59 CALM      29.75F                  

$$
WYZ021-027>030-104>119-192300-
...SOUTHERN WYOMING...
  
CITY           SKY/WX    TMP DP  RH WIND       PRES   REMARKS
EVANSTON       MOSUNNY   12   4  70 W17       29.76F WCI  -5          
KEMMERER       SUNNY     14   3  62 W9        29.74F WCI   2          
FORT BRIDGER   MOSUNNY   16   7  67 E16       29.79F WCI   0          
ROCK SPRINGS   SUNNY     12   4  70 W17       29.74F WCI  -5          
DIXON          FAIR      15   3  61 E10       29.79F WCI   2          
RAWLINS        CLOUDY    12   3  67 W12       29.72F WCI  -2          
SARATOGA       PTSUNNY   14   3  62 W14       29.72F WCI  -1          
LARAMIE        LGT SNOW  12   7  80 NE5       29.64F VSB 3/4 WCI   4  
CHEYENNE       LGT SNOW  18  12  77 CALM      29.69S                  
TORRINGTON     CLOUDY    21  16  81 SE13      29.80F WCI   9          
PINE BLUFFS    CLOUDY    19  12  73 SE9       29.77F HAZE    WCI   9  

$$
  

000
ASUS45 KCYS 192210
RWRWY 

WYOMING REGIONAL WEATHER ROUNDUP
NATIONAL WEATHER SERVICE CHEYENNE WY
300 PM MST TUE FEB 19 2019

NOTE:  "FAIR" INDICATES FEW OR NO CLOUDS BELOW 12,000 FEET
WITH NO SIGNIFICANT WEATHER AND/OR OBSTRUCTIONS TO VISIBILITY.

WYZ001-192300-
YELLOWSTONE NATIONAL PARK
  
CITY           SKY/WX    TMP DP  RH WIND       PRES   REMARKS
LK YELLOWSTONE   N/A      7  -2  66 VRB5      29.68F WCI  -2          
W YELLOWSTONE  NOT AVBL                                               

$$
WYZ002>013-054>058-071-098>099-192300-
NORTHERN WYOMING
  
CITY           SKY/WX    TMP DP  RH WIND       PRES   REMARKS
JACKSON        FLURRIES  13   0  56 SW14G21   29.76S WCI  -2          
CODY           FAIR      25   7  46 E8        29.72F WCI  16          
GREYBULL       FAIR      20   7  57 SE6       29.81F WCI  12          
WORLAND        FAIR      21   7  54 NE3       29.79F                  
SHERIDAN       FAIR      21   6  52 CALM      29.80F                  
BUFFALO        FAIR      22   5  48 N7        29.72F WCI  13          
GILLETTE       FAIR      17   8  67 S9        29.77F WCI   6          
HULETT         MOCLDY    21   9  58 MISG      29.80                   
NEWCASTLE        N/A     18   9  68 SE8       29.84  WCI   7          

$$
WYZ014>020-022>026-101>103-192300-
CENTRAL WYOMING
  
CITY           SKY/WX    TMP DP  RH WIND       PRES   REMARKS
BIG PINEY      FAIR       5  -3  69 CALM      29.73F                  
PINEDALE       FAIR       9  -4  56 CALM      29.73                   
DUBOIS         FAIR      18  -6  35 W20G25    29.62  WCI   1          
LANDER         FAIR      20   3  48 CALM      29.69F                  
RIVERTON       FAIR      21   6  52 SE8       29.70F WCI  11          
CASPER         FAIR      19   8  62 SW18      29.71F WCI   4          
DOUGLAS        CLOUDY    21   9  59 CALM      29.75F                  

$$
WYZ021-027>030-104>119-192300-
SOUTHERN WYOMING
  
CITY           SKY/WX    TMP DP  RH WIND       PRES   REMARKS
EVANSTON       FAIR      12   4  70 W17       29.76F WCI  -5          
KEMMERER       FAIR      14   5  67 W8        29.74  WCI   3          
FORT BRIDGER   PTCLDY    16   7  67 E16       29.79F WCI   0          
ROCK SPRINGS   FAIR      12   4  70 W17       29.74F WCI  -5          
DIXON          FAIR      15   3  61 E10       29.79F WCI   2          
RAWLINS        CLOUDY    12   3  67 W12       29.72F WCI  -2          
SARATOGA       MOCLDY    14   3  62 W14       29.72F WCI  -1          
LARAMIE        LGT SNOW  12   7  80 NE5       29.64F VSB 3/4 WCI   4  
CHEYENNE       LGT SNOW  18  12  77 CALM      29.69S                  
TORRINGTON     CLOUDY    21  16  81 SE13      29.80F WCI   9          
PINE BLUFFS    CLOUDY    19  12  73 SE9       29.77F HAZE    WCI   9  

$$